contact:dominique.lefevre@mio.osupytheas.fr, maurice.libes@osupytheas.fr, didier.mallarino@osupytheas.fr
Project:EMSO http://www.emso-fr.org/EMSO-France
Depth: 2436.0 m
Title:EMSO Ligure Ouest : Data MII capteur MICROCAT
DateTime_Computer,Latitude,Longitude,Temperature,Conductivity,Pressure,DateTime_Instrument
DateTime_Computer,Latitude,Longitude,degC,S m-1,dbar,DateTime_Instrument
2019-10-25T00:02:54Z,42.805,6.029,13.2957,4.59956,2469.844,2019-10-25T02:03:20Z
2019-10-25T00:05:57Z,42.805,6.029,13.2959,4.59960,2469.83,2019-10-25T02:06:24Z
2019-10-25T00:09:01Z,42.805,6.029,13.2959,4.59957,2469.83,2019-10-25T02:09:27Z
2019-10-25T00:12:04Z,42.805,6.029,13.2957,4.59958,2469.83,2019-10-25T02:12:30Z
2019-10-25T00:15:07Z,42.805,6.029,13.2961,4.59960,2469.83,2019-10-25T02:15:33Z
2019-10-25T00:18:10Z,42.805,6.029,13.2960,4.59958,2469.89,2019-10-25T02:18:36Z
2019-10-25T00:21:13Z,42.805,6.029,13.2962,4.59957,2469.83,2019-10-25T02:21:40Z
2019-10-25T00:24:17Z,42.805,6.029,13.2964,4.59958,2469.83,2019-10-25T02:24:43Z
2019-10-25T00:27:20Z,42.805,6.029,13.2958,4.59958,2469.821,2019-10-25T02:27:47Z
2019-10-25T00:30:24Z,42.805,6.029,13.2958,4.59957,2469.83,2019-10-25T02:30:50Z
2019-10-25T00:33:27Z,42.805,6.029,13.2965,4.59958,2469.83,2019-10-25T02:33:53Z
2019-10-25T00:36:30Z,42.805,6.029,13.2960,4.59961,2469.867,2019-10-25T02:36:56Z
2019-10-25T00:39:33Z,42.805,6.029,13.2961,4.59961,2469.844,2019-10-25T02:39:59Z
2019-10-25T00:42:36Z,42.805,6.029,13.2958,4.59956,2469.844,2019-10-25T02:43:03Z
2019-10-25T00:45:40Z,42.805,6.029,13.2961,4.59956,2469.876,2019-10-25T02:46:06Z
2019-10-25T00:48:43Z,42.805,6.029,13.2963,4.59957,2469.876,2019-10-25T02:49:09Z
2019-10-25T00:51:46Z,42.805,6.029,13.2964,4.59957,2469.853,2019-10-25T02:52:12Z
2019-10-25T00:54:49Z,42.805,6.029,13.2961,4.59959,2469.876,2019-10-25T02:55:16Z
2019-10-25T00:57:53Z,42.805,6.029,13.2958,4.59958,2469.853,2019-10-25T02:58:19Z
2019-10-25T01:00:56Z,42.805,6.029,13.2963,4.59957,2469.844,2019-10-25T03:01:22Z
2019-10-25T01:03:59Z,42.805,6.029,13.2963,4.59958,2469.876,2019-10-25T03:04:25Z
2019-10-25T01:07:02Z,42.805,6.029,13.2958,4.59957,2469.853,2019-10-25T03:07:28Z
2019-10-25T01:10:05Z,42.805,6.029,13.2961,4.59957,2469.876,2019-10-25T03:10:32Z
2019-10-25T01:13:09Z,42.805,6.029,13.2958,4.59956,2469.867,2019-10-25T03:13:35Z
2019-10-25T01:16:12Z,42.805,6.029,13.2960,4.59958,2469.89,2019-10-25T03:16:38Z
2019-10-25T01:19:15Z,42.805,6.029,13.2956,4.59958,2469.89,2019-10-25T03:19:41Z
2019-10-25T01:22:18Z,42.805,6.029,13.2958,4.59956,2469.89,2019-10-25T03:22:44Z
2019-10-25T01:25:21Z,42.805,6.029,13.2953,4.59960,2469.876,2019-10-25T03:25:48Z
2019-10-25T01:28:25Z,42.805,6.029,13.2959,4.59957,2469.89,2019-10-25T03:28:51Z
2019-10-25T01:31:28Z,42.805,6.029,13.2962,4.59960,2469.83,2019-10-25T03:31:54Z
2019-10-25T01:34:31Z,42.805,6.029,13.2961,4.59958,2469.876,2019-10-25T03:34:57Z
2019-10-25T01:37:34Z,42.805,6.029,13.2960,4.59960,2469.89,2019-10-25T03:38:00Z
2019-10-25T01:40:38Z,42.805,6.029,13.2958,4.59958,2469.89,2019-10-25T03:41:04Z
2019-10-25T01:43:41Z,42.805,6.029,13.2958,4.59958,2469.89,2019-10-25T03:44:07Z
2019-10-25T01:46:44Z,42.805,6.029,13.2961,4.59958,2469.89,2019-10-25T03:47:10Z
2019-10-25T01:49:47Z,42.805,6.029,13.2961,4.59958,2469.89,2019-10-25T03:50:13Z
2019-10-25T01:52:50Z,42.805,6.029,13.2958,4.59957,2469.853,2019-10-25T03:53:17Z
2019-10-25T01:55:54Z,42.805,6.029,13.2960,4.59957,2469.876,2019-10-25T03:56:20Z
2019-10-25T01:58:57Z,42.805,6.029,13.2960,4.59957,2469.89,2019-10-25T03:59:23Z
2019-10-25T02:02:00Z,42.805,6.029,13.2958,4.59956,2469.914,2019-10-25T04:02:26Z
2019-10-25T02:05:04Z,42.805,6.029,13.2964,4.59956,2469.867,2019-10-25T04:05:30Z
2019-10-25T02:08:07Z,42.805,6.029,13.2959,4.59958,2469.876,2019-10-25T04:08:33Z
2019-10-25T02:11:10Z,42.805,6.029,13.2958,4.59958,2469.89,2019-10-25T04:11:36Z
2019-10-25T02:14:13Z,42.805,6.029,13.2960,4.59958,2469.876,2019-10-25T04:14:39Z
2019-10-25T02:17:16Z,42.805,6.029,13.2960,4.59958,2469.9,2019-10-25T04:17:43Z
2019-10-25T02:20:20Z,42.805,6.029,13.2958,4.59956,2469.914,2019-10-25T04:20:46Z
2019-10-25T02:23:23Z,42.805,6.029,13.2958,4.59958,2469.89,2019-10-25T04:23:49Z
2019-10-25T02:26:26Z,42.805,6.029,13.2959,4.59958,2469.89,2019-10-25T04:26:52Z
2019-10-25T02:29:29Z,42.805,6.029,13.2960,4.59957,2469.876,2019-10-25T04:29:56Z
2019-10-25T02:32:33Z,42.805,6.029,13.2958,4.59957,2469.9,2019-10-25T04:32:59Z
2019-10-25T02:35:36Z,42.805,6.029,13.2959,4.59957,2469.937,2019-10-25T04:36:02Z
2019-10-25T02:38:39Z,42.805,6.029,13.2959,4.59958,2469.876,2019-10-25T04:39:05Z
2019-10-25T02:41:42Z,42.805,6.029,13.2959,4.59958,2469.876,2019-10-25T04:42:08Z
2019-10-25T02:44:46Z,42.805,6.029,13.2958,4.59957,2469.914,2019-10-25T04:45:12Z
2019-10-25T02:47:49Z,42.805,6.029,13.2962,4.59960,2469.89,2019-10-25T04:48:15Z
2019-10-25T02:50:53Z,42.805,6.029,13.2961,4.59958,2469.9,2019-10-25T04:51:19Z
2019-10-25T02:53:56Z,42.805,6.029,13.2960,4.59958,2469.863,2019-10-25T04:54:22Z
2019-10-25T02:56:59Z,42.805,6.029,13.2958,4.59957,2469.9,2019-10-25T04:57:25Z
2019-10-25T03:00:02Z,42.805,6.029,13.2957,4.59958,2469.9,2019-10-25T05:00:28Z
2019-10-25T03:03:05Z,42.805,6.029,13.2957,4.59957,2469.9,2019-10-25T05:03:31Z
2019-10-25T03:06:09Z,42.805,6.029,13.2958,4.59958,2469.923,2019-10-25T05:06:35Z
2019-10-25T03:09:12Z,42.805,6.029,13.2960,4.59957,2469.914,2019-10-25T05:09:38Z
2019-10-25T03:12:15Z,42.805,6.029,13.2961,4.59958,2469.914,2019-10-25T05:12:41Z
2019-10-25T03:15:18Z,42.805,6.029,13.2961,4.59958,2469.914,2019-10-25T05:15:44Z
2019-10-25T03:18:22Z,42.805,6.029,13.2957,4.59957,2469.914,2019-10-25T05:18:48Z
2019-10-25T03:21:25Z,42.805,6.029,13.2961,4.59958,2469.914,2019-10-25T05:21:51Z
2019-10-25T03:24:28Z,42.805,6.029,13.2958,4.59958,2469.937,2019-10-25T05:24:54Z
2019-10-25T03:27:31Z,42.805,6.029,13.2958,4.59960,2469.96,2019-10-25T05:27:57Z
2019-10-25T03:30:34Z,42.805,6.029,13.2958,4.59958,2469.923,2019-10-25T05:31:00Z
2019-10-25T03:33:37Z,42.805,6.029,13.2964,4.59959,2469.96,2019-10-25T05:34:04Z
2019-10-25T03:36:41Z,42.805,6.029,13.2958,4.59957,2469.97,2019-10-25T05:37:07Z
2019-10-25T03:39:44Z,42.805,6.029,13.2958,4.59957,2469.937,2019-10-25T05:40:10Z
2019-10-25T03:42:47Z,42.805,6.029,13.2957,4.59958,2469.96,2019-10-25T05:43:13Z
2019-10-25T03:45:50Z,42.805,6.029,13.2961,4.59956,2469.914,2019-10-25T05:46:17Z
2019-10-25T03:48:54Z,42.805,6.029,13.2961,4.59958,2469.923,2019-10-25T05:49:20Z
2019-10-25T03:51:57Z,42.805,6.029,13.2958,4.59958,2469.923,2019-10-25T05:52:23Z
2019-10-25T03:55:00Z,42.805,6.029,13.2958,4.59960,2469.96,2019-10-25T05:55:26Z
2019-10-25T03:58:03Z,42.805,6.029,13.2959,4.59957,2469.96,2019-10-25T05:58:29Z
2019-10-25T04:01:07Z,42.805,6.029,13.2954,4.59958,2469.947,2019-10-25T06:01:33Z
2019-10-25T04:04:10Z,42.805,6.029,13.2960,4.59958,2469.97,2019-10-25T06:04:36Z
2019-10-25T04:07:13Z,42.805,6.029,13.2958,4.59957,2469.923,2019-10-25T06:07:39Z
2019-10-25T04:10:16Z,42.805,6.029,13.2964,4.59959,2469.947,2019-10-25T06:10:43Z
2019-10-25T04:13:20Z,42.805,6.029,13.2959,4.59960,2469.947,2019-10-25T06:13:46Z
2019-10-25T04:16:23Z,42.805,6.029,13.2961,4.59957,2469.947,2019-10-25T06:16:49Z
2019-10-25T04:19:26Z,42.805,6.029,13.2962,4.59961,2469.947,2019-10-25T06:19:52Z
2019-10-25T04:22:29Z,42.805,6.029,13.2957,4.59957,2469.97,2019-10-25T06:22:55Z
2019-10-25T04:25:32Z,42.805,6.029,13.2958,4.59956,2469.96,2019-10-25T06:25:59Z
2019-10-25T04:28:36Z,42.805,6.029,13.2963,4.59961,2469.923,2019-10-25T06:29:02Z
2019-10-25T04:31:39Z,42.805,6.029,13.2961,4.59960,2469.937,2019-10-25T06:32:05Z
2019-10-25T04:34:42Z,42.805,6.029,13.2959,4.59957,2469.923,2019-10-25T06:35:08Z
2019-10-25T04:37:45Z,42.805,6.029,13.2959,4.59957,2469.937,2019-10-25T06:38:11Z
2019-10-25T04:40:48Z,42.805,6.029,13.2959,4.59957,2469.96,2019-10-25T06:41:14Z
2019-10-25T04:43:52Z,42.805,6.029,13.2961,4.59957,2469.947,2019-10-25T06:44:18Z
2019-10-25T04:46:55Z,42.805,6.029,13.2959,4.59958,2469.937,2019-10-25T06:47:21Z
2019-10-25T04:49:58Z,42.805,6.029,13.2960,4.59956,2469.947,2019-10-25T06:50:24Z
2019-10-25T04:53:01Z,42.805,6.029,13.2958,4.59957,2469.947,2019-10-25T06:53:27Z
2019-10-25T04:56:04Z,42.805,6.029,13.2958,4.59956,2469.97,2019-10-25T06:56:31Z
2019-10-25T04:59:08Z,42.805,6.029,13.2964,4.59958,2469.947,2019-10-25T06:59:34Z
2019-10-25T05:02:11Z,42.805,6.029,13.2961,4.59957,2469.947,2019-10-25T07:02:37Z
2019-10-25T05:05:14Z,42.805,6.029,13.2961,4.59957,2469.984,2019-10-25T07:05:40Z
2019-10-25T05:08:17Z,42.805,6.029,13.2958,4.59958,2469.993,2019-10-25T07:08:43Z
2019-10-25T05:11:20Z,42.805,6.029,13.2958,4.59960,2469.984,2019-10-25T07:11:47Z
2019-10-25T05:14:24Z,42.805,6.029,13.2957,4.59956,2469.96,2019-10-25T07:14:50Z
2019-10-25T05:17:27Z,42.805,6.029,13.2961,4.59956,2469.947,2019-10-25T07:17:53Z
2019-10-25T05:20:30Z,42.805,6.029,13.2960,4.59958,2469.96,2019-10-25T07:20:56Z
2019-10-25T05:23:33Z,42.805,6.029,13.2960,4.59957,2469.947,2019-10-25T07:23:59Z
2019-10-25T05:26:36Z,42.805,6.029,13.2957,4.59958,2469.947,2019-10-25T07:27:03Z
2019-10-25T05:29:40Z,42.805,6.029,13.2963,4.59957,2469.97,2019-10-25T07:30:06Z
2019-10-25T05:32:43Z,42.805,6.029,13.2961,4.59957,2469.951,2019-10-25T07:33:09Z
2019-10-25T05:35:46Z,42.805,6.029,13.2961,4.59958,2469.96,2019-10-25T07:36:13Z
2019-10-25T05:38:50Z,42.805,6.029,13.2961,4.59957,2469.96,2019-10-25T07:39:16Z
2019-10-25T05:41:53Z,42.805,6.029,13.2959,4.59957,2469.923,2019-10-25T07:42:19Z
2019-10-25T05:44:56Z,42.805,6.029,13.2957,4.59961,2469.984,2019-10-25T07:45:22Z
2019-10-25T05:47:59Z,42.805,6.029,13.2961,4.59958,2469.914,2019-10-25T07:48:25Z
2019-10-25T05:51:03Z,42.805,6.029,13.2957,4.59959,2469.96,2019-10-25T07:51:29Z
2019-10-25T05:54:06Z,42.805,6.029,13.2961,4.59958,2469.96,2019-10-25T07:54:32Z
2019-10-25T05:57:09Z,42.805,6.029,13.2956,4.59957,2469.9,2019-10-25T07:57:35Z
2019-10-25T06:00:12Z,42.805,6.029,13.2960,4.59958,2469.923,2019-10-25T08:00:38Z
2019-10-25T06:03:15Z,42.805,6.029,13.2959,4.59961,2469.947,2019-10-25T08:03:42Z
2019-10-25T06:06:19Z,42.805,6.029,13.2962,4.59958,2469.947,2019-10-25T08:06:45Z
2019-10-25T06:09:22Z,42.805,6.029,13.2961,4.59958,2469.993,2019-10-25T08:09:48Z
2019-10-25T06:12:25Z,42.805,6.029,13.2960,4.59957,2469.947,2019-10-25T08:12:51Z
2019-10-25T06:15:28Z,42.805,6.029,13.2961,4.59958,2469.96,2019-10-25T08:15:54Z
2019-10-25T06:18:31Z,42.805,6.029,13.2957,4.59958,2469.947,2019-10-25T08:18:58Z
2019-10-25T06:21:35Z,42.805,6.029,13.2959,4.59959,2469.96,2019-10-25T08:22:01Z
2019-10-25T06:24:38Z,42.805,6.029,13.2959,4.59957,2469.923,2019-10-25T08:25:04Z
2019-10-25T06:27:41Z,42.805,6.029,13.2958,4.59960,2469.923,2019-10-25T08:28:07Z
2019-10-25T06:30:44Z,42.805,6.029,13.2961,4.59958,2469.947,2019-10-25T08:31:11Z
2019-10-25T06:33:48Z,42.805,6.029,13.2957,4.59956,2469.947,2019-10-25T08:34:14Z
2019-10-25T06:36:51Z,42.805,6.029,13.2960,4.59958,2469.923,2019-10-25T08:37:17Z
2019-10-25T06:39:54Z,42.805,6.029,13.2959,4.59958,2469.947,2019-10-25T08:40:20Z
2019-10-25T06:42:57Z,42.805,6.029,13.2958,4.59957,2469.97,2019-10-25T08:43:23Z
2019-10-25T06:46:01Z,42.805,6.029,13.2954,4.59959,2469.923,2019-10-25T08:46:27Z
2019-10-25T06:49:04Z,42.805,6.029,13.2962,4.59957,2469.914,2019-10-25T08:49:30Z
2019-10-25T06:52:07Z,42.805,6.029,13.2957,4.59957,2469.947,2019-10-25T08:52:33Z
2019-10-25T06:55:10Z,42.805,6.029,13.2961,4.59958,2469.9,2019-10-25T08:55:36Z
2019-10-25T06:58:13Z,42.805,6.029,13.2959,4.59962,2469.923,2019-10-25T08:58:40Z
2019-10-25T07:01:17Z,42.805,6.029,13.2962,4.59960,2469.923,2019-10-25T09:01:43Z
2019-10-25T07:04:20Z,42.805,6.029,13.2958,4.59957,2469.9,2019-10-25T09:04:46Z
2019-10-25T07:07:23Z,42.805,6.029,13.2961,4.59958,2469.914,2019-10-25T09:07:49Z
2019-10-25T07:10:26Z,42.805,6.029,13.2965,4.59957,2469.937,2019-10-25T09:10:52Z
2019-10-25T07:13:30Z,42.805,6.029,13.2960,4.59958,2469.923,2019-10-25T09:13:56Z
2019-10-25T07:16:33Z,42.805,6.029,13.2961,4.59957,2469.914,2019-10-25T09:16:59Z
2019-10-25T07:19:36Z,42.805,6.029,13.2959,4.59958,2469.876,2019-10-25T09:20:02Z
2019-10-25T07:22:39Z,42.805,6.029,13.2960,4.59958,2469.876,2019-10-25T09:23:05Z
2019-10-25T07:25:42Z,42.805,6.029,13.2961,4.59958,2469.9,2019-10-25T09:26:09Z
2019-10-25T07:28:46Z,42.805,6.029,13.2961,4.59957,2469.9,2019-10-25T09:29:12Z
2019-10-25T07:31:49Z,42.805,6.029,13.2960,4.59957,2469.923,2019-10-25T09:32:15Z
2019-10-25T07:34:52Z,42.805,6.029,13.2957,4.59958,2469.89,2019-10-25T09:35:18Z
2019-10-25T07:37:55Z,42.805,6.029,13.2961,4.59958,2469.9,2019-10-25T09:38:22Z
2019-10-25T07:40:59Z,42.805,6.029,13.2957,4.59958,2469.937,2019-10-25T09:41:25Z
2019-10-25T07:44:02Z,42.805,6.029,13.2958,4.59957,2469.9,2019-10-25T09:44:28Z
2019-10-25T07:47:05Z,42.805,6.029,13.2963,4.59957,2469.914,2019-10-25T09:47:31Z
2019-10-25T07:50:08Z,42.805,6.029,13.2959,4.59958,2469.9,2019-10-25T09:50:34Z
2019-10-25T07:53:11Z,42.805,6.029,13.2957,4.59957,2469.9,2019-10-25T09:53:38Z
2019-10-25T07:56:15Z,42.805,6.029,13.2962,4.59958,2469.9,2019-10-25T09:56:41Z
2019-10-25T07:59:18Z,42.805,6.029,13.2964,4.59958,2469.914,2019-10-25T09:59:44Z
2019-10-25T08:02:21Z,42.805,6.029,13.2960,4.59958,2469.9,2019-10-25T10:02:47Z
2019-10-25T08:05:24Z,42.805,6.029,13.2960,4.59958,2469.876,2019-10-25T10:05:50Z
2019-10-25T08:08:28Z,42.805,6.029,13.2959,4.59957,2469.923,2019-10-25T10:08:54Z
2019-10-25T08:11:31Z,42.805,6.029,13.2957,4.59957,2469.89,2019-10-25T10:11:57Z
2019-10-25T08:14:34Z,42.805,6.029,13.2961,4.59956,2469.9,2019-10-25T10:15:00Z
2019-10-25T08:17:37Z,42.805,6.029,13.2959,4.59957,2469.89,2019-10-25T10:18:03Z
2019-10-25T08:20:40Z,42.805,6.029,13.2960,4.59957,2469.914,2019-10-25T10:21:06Z
2019-10-25T08:23:44Z,42.805,6.029,13.2961,4.59958,2469.89,2019-10-25T10:24:10Z
2019-10-25T08:26:47Z,42.805,6.029,13.2962,4.59960,2469.876,2019-10-25T10:27:13Z
2019-10-25T08:29:50Z,42.805,6.029,13.2962,4.59958,2469.867,2019-10-25T10:30:16Z
2019-10-25T08:32:53Z,42.805,6.029,13.2962,4.59957,2469.867,2019-10-25T10:33:19Z
2019-10-25T08:35:56Z,42.805,6.029,13.2960,4.59958,2469.89,2019-10-25T10:36:23Z
2019-10-25T08:39:00Z,42.805,6.029,13.2958,4.59957,2469.89,2019-10-25T10:39:26Z
2019-10-25T08:42:03Z,42.805,6.029,13.2958,4.59957,2469.89,2019-10-25T10:42:29Z
2019-10-25T08:45:06Z,42.805,6.029,13.2957,4.59958,2469.914,2019-10-25T10:45:32Z
2019-10-25T08:48:09Z,42.805,6.029,13.2957,4.59957,2469.876,2019-10-25T10:48:35Z
2019-10-25T08:51:12Z,42.805,6.029,13.2958,4.59957,2469.853,2019-10-25T10:51:39Z
2019-10-25T08:54:16Z,42.805,6.029,13.2962,4.59958,2469.89,2019-10-25T10:54:42Z
2019-10-25T08:57:19Z,42.805,6.029,13.2960,4.59957,2469.83,2019-10-25T10:57:45Z
2019-10-25T09:00:22Z,42.805,6.029,13.2961,4.59957,2469.876,2019-10-25T11:00:48Z
2019-10-25T09:03:25Z,42.805,6.029,13.2959,4.59957,2469.867,2019-10-25T11:03:52Z
2019-10-25T09:06:29Z,42.805,6.029,13.2964,4.59958,2469.867,2019-10-25T11:06:55Z
2019-10-25T09:09:32Z,42.805,6.029,13.2958,4.59958,2469.83,2019-10-25T11:09:58Z
2019-10-25T09:12:35Z,42.805,6.029,13.2959,4.59956,2469.844,2019-10-25T11:13:01Z
2019-10-25T09:15:38Z,42.805,6.029,13.2961,4.59956,2469.867,2019-10-25T11:16:04Z
2019-10-25T09:18:41Z,42.805,6.029,13.2959,4.59957,2469.876,2019-10-25T11:19:08Z
2019-10-25T09:21:45Z,42.805,6.029,13.2963,4.59957,2469.853,2019-10-25T11:22:11Z
2019-10-25T09:24:48Z,42.805,6.029,13.2958,4.59958,2469.853,2019-10-25T11:25:14Z
2019-10-25T09:27:51Z,42.805,6.029,13.2961,4.59956,2469.83,2019-10-25T11:28:17Z
2019-10-25T09:30:54Z,42.805,6.029,13.2959,4.59956,2469.853,2019-10-25T11:31:21Z
2019-10-25T09:33:58Z,42.805,6.029,13.2958,4.59957,2469.83,2019-10-25T11:34:24Z
2019-10-25T09:37:01Z,42.805,6.029,13.2958,4.59957,2469.844,2019-10-25T11:37:27Z
2019-10-25T09:40:04Z,42.805,6.029,13.2962,4.59957,2469.853,2019-10-25T11:40:30Z
2019-10-25T09:43:07Z,42.805,6.029,13.2958,4.59957,2469.83,2019-10-25T11:43:33Z
2019-10-25T09:46:11Z,42.805,6.029,13.2959,4.59958,2469.83,2019-10-25T11:46:37Z
2019-10-25T09:49:14Z,42.805,6.029,13.2959,4.59957,2469.83,2019-10-25T11:49:40Z
2019-10-25T09:52:17Z,42.805,6.029,13.2958,4.59958,2469.806,2019-10-25T11:52:43Z
2019-10-25T09:55:20Z,42.805,6.029,13.2960,4.59958,2469.83,2019-10-25T11:55:46Z
2019-10-25T09:58:23Z,42.805,6.029,13.2961,4.59958,2469.853,2019-10-25T11:58:50Z
2019-10-25T10:01:27Z,42.805,6.029,13.2958,4.59959,2469.853,2019-10-25T12:01:53Z
2019-10-25T10:04:30Z,42.805,6.029,13.2962,4.59958,2469.783,2019-10-25T12:04:56Z
2019-10-25T10:07:33Z,42.805,6.029,13.2958,4.59957,2469.806,2019-10-25T12:07:59Z
2019-10-25T10:10:36Z,42.805,6.029,13.2961,4.59957,2469.821,2019-10-25T12:11:02Z
2019-10-25T10:13:39Z,42.805,6.029,13.2959,4.59957,2469.844,2019-10-25T12:14:06Z
2019-10-25T10:16:43Z,42.805,6.029,13.2961,4.59958,2469.806,2019-10-25T12:17:09Z
2019-10-25T10:19:46Z,42.805,6.029,13.2960,4.59956,2469.783,2019-10-25T12:20:12Z
2019-10-25T10:22:49Z,42.805,6.029,13.2957,4.59957,2469.783,2019-10-25T12:23:15Z
2019-10-25T10:25:52Z,42.805,6.029,13.2961,4.59958,2469.783,2019-10-25T12:26:18Z
2019-10-25T10:28:55Z,42.805,6.029,13.2960,4.59957,2469.821,2019-10-25T12:29:22Z
2019-10-25T10:31:59Z,42.805,6.029,13.2960,4.59957,2469.806,2019-10-25T12:32:25Z
2019-10-25T10:35:02Z,42.805,6.029,13.2958,4.59958,2469.867,2019-10-25T12:35:28Z
2019-10-25T10:38:05Z,42.805,6.029,13.2958,4.59957,2469.844,2019-10-25T12:38:31Z
2019-10-25T10:41:08Z,42.805,6.029,13.2960,4.59956,2469.806,2019-10-25T12:41:35Z
2019-10-25T10:44:12Z,42.805,6.029,13.2960,4.59957,2469.844,2019-10-25T12:44:38Z
2019-10-25T10:47:15Z,42.805,6.029,13.2959,4.59957,2469.821,2019-10-25T12:47:41Z
2019-10-25T10:50:18Z,42.805,6.029,13.2958,4.59958,2469.806,2019-10-25T12:50:44Z
2019-10-25T10:53:21Z,42.805,6.029,13.2958,4.59957,2469.839,2019-10-25T12:53:47Z
2019-10-25T10:56:25Z,42.805,6.029,13.2959,4.59958,2469.853,2019-10-25T12:56:51Z
2019-10-25T10:59:28Z,42.805,6.029,13.2962,4.59958,2469.806,2019-10-25T12:59:54Z
2019-10-25T11:02:31Z,42.805,6.029,13.2958,4.59957,2469.806,2019-10-25T13:02:57Z
2019-10-25T11:05:34Z,42.805,6.029,13.2964,4.59957,2469.83,2019-10-25T13:06:00Z
2019-10-25T11:08:37Z,42.805,6.029,13.2961,4.59957,2469.83,2019-10-25T13:09:04Z
2019-10-25T11:11:41Z,42.805,6.029,13.2958,4.59956,2469.806,2019-10-25T13:12:07Z
2019-10-25T11:14:44Z,42.805,6.029,13.2960,4.59957,2469.83,2019-10-25T13:15:10Z
2019-10-25T11:17:47Z,42.805,6.029,13.2962,4.59957,2469.83,2019-10-25T13:18:13Z
2019-10-25T11:20:50Z,42.805,6.029,13.2958,4.59956,2469.821,2019-10-25T13:21:16Z
2019-10-25T11:23:53Z,42.805,6.029,13.2956,4.59958,2469.806,2019-10-25T13:24:20Z
2019-10-25T11:26:57Z,42.805,6.029,13.2960,4.59957,2469.783,2019-10-25T13:27:23Z
2019-10-25T11:30:00Z,42.805,6.029,13.2958,4.59960,2469.806,2019-10-25T13:30:26Z
2019-10-25T11:33:03Z,42.805,6.029,13.2955,4.59956,2469.83,2019-10-25T13:33:29Z
2019-10-25T11:36:06Z,42.805,6.029,13.2957,4.59958,2469.83,2019-10-25T13:36:33Z
2019-10-25T11:39:10Z,42.805,6.029,13.2958,4.59958,2469.83,2019-10-25T13:39:36Z
2019-10-25T11:42:13Z,42.805,6.029,13.2958,4.59956,2469.83,2019-10-25T13:42:39Z
2019-10-25T11:45:16Z,42.805,6.029,13.2960,4.59956,2469.844,2019-10-25T13:45:42Z
2019-10-25T11:48:20Z,42.805,6.029,13.2957,4.59957,2469.83,2019-10-25T13:48:46Z
2019-10-25T11:51:23Z,42.805,6.029,13.2957,4.59958,2469.83,2019-10-25T13:51:49Z
2019-10-25T11:54:26Z,42.805,6.029,13.2958,4.59957,2469.83,2019-10-25T13:54:52Z
2019-10-25T11:57:29Z,42.805,6.029,13.2959,4.59957,2469.821,2019-10-25T13:57:55Z
2019-10-25T12:00:32Z,42.805,6.029,13.2957,4.59960,2469.806,2019-10-25T14:00:59Z
2019-10-25T12:03:36Z,42.805,6.029,13.2961,4.59958,2469.876,2019-10-25T14:04:02Z
2019-10-25T12:06:39Z,42.805,6.029,13.2958,4.59958,2469.853,2019-10-25T14:07:05Z
2019-10-25T12:09:42Z,42.805,6.029,13.2964,4.59959,2469.806,2019-10-25T14:10:08Z
2019-10-25T12:12:45Z,42.805,6.029,13.2955,4.59956,2469.867,2019-10-25T14:13:12Z
2019-10-25T12:15:49Z,42.805,6.029,13.2957,4.59956,2469.853,2019-10-25T14:16:15Z
2019-10-25T12:18:52Z,42.805,6.029,13.2961,4.59957,2469.876,2019-10-25T14:19:18Z
2019-10-25T12:21:55Z,42.805,6.029,13.2961,4.59957,2469.876,2019-10-25T14:22:21Z
2019-10-25T12:24:58Z,42.805,6.029,13.2958,4.59957,2469.853,2019-10-25T14:25:24Z
2019-10-25T12:28:02Z,42.805,6.029,13.2964,4.59962,2469.853,2019-10-25T14:28:28Z
2019-10-25T12:31:05Z,42.805,6.029,13.2960,4.59956,2469.89,2019-10-25T14:31:31Z
2019-10-25T12:34:08Z,42.805,6.029,13.2956,4.59958,2469.867,2019-10-25T14:34:34Z
2019-10-25T12:37:11Z,42.805,6.029,13.2957,4.59958,2469.853,2019-10-25T14:37:37Z
2019-10-25T12:40:14Z,42.805,6.029,13.2961,4.59958,2469.867,2019-10-25T14:40:41Z
2019-10-25T12:43:18Z,42.805,6.029,13.2958,4.59958,2469.83,2019-10-25T14:43:44Z
2019-10-25T12:46:21Z,42.805,6.029,13.2961,4.59958,2469.89,2019-10-25T14:46:47Z
2019-10-25T12:49:24Z,42.805,6.029,13.2961,4.59956,2469.83,2019-10-25T14:49:50Z
2019-10-25T12:52:27Z,42.805,6.029,13.2961,4.59958,2469.863,2019-10-25T14:52:54Z
2019-10-25T12:55:31Z,42.805,6.029,13.2953,4.59957,2469.876,2019-10-25T14:55:57Z
2019-10-25T12:58:34Z,42.805,6.029,13.2958,4.59958,2469.876,2019-10-25T14:59:00Z
2019-10-25T13:01:37Z,42.805,6.029,13.2961,4.59957,2469.853,2019-10-25T15:02:03Z
2019-10-25T13:04:40Z,42.805,6.029,13.2960,4.59958,2469.914,2019-10-25T15:05:06Z
2019-10-25T13:07:44Z,42.805,6.029,13.2961,4.59957,2469.853,2019-10-25T15:08:10Z
2019-10-25T13:10:47Z,42.805,6.029,13.2960,4.59957,2469.9,2019-10-25T15:11:13Z
2019-10-25T13:13:50Z,42.805,6.029,13.2957,4.59957,2469.89,2019-10-25T15:14:16Z
2019-10-25T13:16:53Z,42.805,6.029,13.2961,4.59957,2469.923,2019-10-25T15:17:19Z
2019-10-25T13:19:56Z,42.805,6.029,13.2960,4.59959,2469.89,2019-10-25T15:20:22Z
2019-10-25T13:23:00Z,42.805,6.029,13.2957,4.59958,2469.876,2019-10-25T15:23:26Z
2019-10-25T13:26:03Z,42.805,6.029,13.2963,4.59960,2469.914,2019-10-25T15:26:29Z
2019-10-25T13:29:06Z,42.805,6.029,13.2961,4.59960,2469.9,2019-10-25T15:29:32Z
2019-10-25T13:32:09Z,42.805,6.029,13.2960,4.59958,2469.9,2019-10-25T15:32:35Z
2019-10-25T13:35:12Z,42.805,6.029,13.2957,4.59958,2469.9,2019-10-25T15:35:39Z
2019-10-25T13:38:16Z,42.805,6.029,13.2958,4.59958,2469.9,2019-10-25T15:38:42Z
2019-10-25T13:41:19Z,42.805,6.029,13.2962,4.59958,2469.9,2019-10-25T15:41:45Z
2019-10-25T13:44:22Z,42.805,6.029,13.2961,4.59958,2469.9,2019-10-25T15:44:48Z
2019-10-25T13:47:25Z,42.805,6.029,13.2961,4.59959,2469.9,2019-10-25T15:47:52Z
2019-10-25T13:50:29Z,42.805,6.029,13.2958,4.59957,2469.9,2019-10-25T15:50:55Z
2019-10-25T13:53:32Z,42.805,6.029,13.2959,4.59958,2469.923,2019-10-25T15:53:58Z
2019-10-25T13:56:35Z,42.805,6.029,13.2958,4.59957,2469.9,2019-10-25T15:57:01Z
2019-10-25T13:59:38Z,42.805,6.029,13.2961,4.59958,2469.96,2019-10-25T16:00:04Z
2019-10-25T14:02:41Z,42.805,6.029,13.2960,4.59957,2469.923,2019-10-25T16:03:08Z
2019-10-25T14:05:45Z,42.805,6.029,13.2960,4.59960,2469.923,2019-10-25T16:06:11Z
2019-10-25T14:08:48Z,42.805,6.029,13.2958,4.59958,2469.96,2019-10-25T16:09:14Z
2019-10-25T14:11:51Z,42.805,6.029,13.2958,4.59958,2469.923,2019-10-25T16:12:17Z
2019-10-25T14:14:54Z,42.805,6.029,13.2957,4.59958,2469.974,2019-10-25T16:15:20Z
2019-10-25T14:17:58Z,42.805,6.029,13.2961,4.59957,2469.96,2019-10-25T16:18:24Z
2019-10-25T14:21:01Z,42.805,6.029,13.2957,4.59958,2469.923,2019-10-25T16:21:27Z
2019-10-25T14:24:04Z,42.805,6.029,13.2964,4.59957,2469.923,2019-10-25T16:24:30Z
2019-10-25T14:27:07Z,42.805,6.029,13.2959,4.59958,2469.956,2019-10-25T16:27:33Z
2019-10-25T14:30:11Z,42.805,6.029,13.2958,4.59958,2469.947,2019-10-25T16:30:37Z
2019-10-25T14:33:14Z,42.805,6.029,13.2962,4.59958,2469.96,2019-10-25T16:33:40Z
2019-10-25T14:36:17Z,42.805,6.029,13.2959,4.59959,2469.947,2019-10-25T16:36:43Z
2019-10-25T14:39:20Z,42.805,6.029,13.2961,4.59957,2469.947,2019-10-25T16:39:46Z
2019-10-25T14:42:24Z,42.805,6.029,13.2962,4.59958,2469.947,2019-10-25T16:42:50Z
2019-10-25T14:45:27Z,42.805,6.029,13.2962,4.59958,2469.97,2019-10-25T16:45:53Z
2019-10-25T14:48:30Z,42.805,6.029,13.2958,4.59958,2469.97,2019-10-25T16:48:56Z
2019-10-25T14:51:33Z,42.805,6.029,13.2960,4.59958,2469.947,2019-10-25T16:51:59Z
2019-10-25T14:54:36Z,42.805,6.029,13.2959,4.59958,2470.007,2019-10-25T16:55:03Z
2019-10-25T14:57:40Z,42.805,6.029,13.2961,4.59962,2469.97,2019-10-25T16:58:06Z
2019-10-25T15:00:43Z,42.805,6.029,13.2967,4.59958,2469.984,2019-10-25T17:01:09Z
2019-10-25T15:03:46Z,42.805,6.029,13.2958,4.59961,2469.993,2019-10-25T17:04:12Z